Satellite: NOAA-17
Catalog number: 27453
Epoch time:      12186.79405959
Element set:    0760
Inclination:      098.3351 deg
RA of node:       212.9415 deg
Eccentricity:    0.0012831
Arg of perigee:   104.4114 deg
Mean anomaly:     255.8465 deg
Mean motion:   14.24453318 rev/day
Decay rate:       1.33e-06 rev/day^2
Epoch rev:           52126
Checksum:              294

Satellite: NOAA-18
Catalog number: 28654
Epoch time:      12186.78509328
Element set:    0240
Inclination:      099.0463 deg
RA of node:       145.0198 deg
Eccentricity:    0.0015212
Arg of perigee:   104.3976 deg
Mean anomaly:     255.8877 deg
Mean motion:   14.11670785 rev/day
Decay rate:       4.11e-06 rev/day^2
Epoch rev:           36704
Checksum:              318

Satellite: NOAA-19
Catalog number: 33591
Epoch time:      12186.86776782
Element set:    0431
Inclination:      098.8643 deg
RA of node:       126.4375 deg
Eccentricity:    0.0013924
Arg of perigee:   335.4901 deg
Mean anomaly:     024.5573 deg
Mean motion:   14.11356274 rev/day
Decay rate:        1.5e-07 rev/day^2
Epoch rev:           17550
Checksum:              313

/EX
SB KEPS @ AMSAT  $ORB12187.M
Orbital Elements  12187.MISC

HR AMSAT ORBITAL ELEMENTS FOR MANNED AND MISCELLANEOUS SATELLITES
FROM WA5QGD FORT WORTH,TX July 5, 2012
Send SUBSCRIBE KEPS/UNSUBSCRIBE KEPS to majordomo@amsat.org only
BID: ORB12187.M
TO ALL RADIO AMATEURS BT

Satellite: HUBBLE
Catalog number: 20580
Epoch time:      12185.92876857
Element set:    0029
Inclination:      028.4714 deg
RA of node:       033.9796 deg
Eccentricity:    0.0003503
Arg of perigee:   231.8311 deg
Mean anomaly:     128.2137 deg
Mean motion:   15.02589516 rev/day
Decay rate:      1.316e-05 rev/day^2
Epoch rev:           01725
Checksum:              288

Satellite: ISS
Catalog number: 25544
Epoch time:      12186.88741898
Element set:    0867
Inclination:      051.6402 deg
RA of node:       033.9136 deg
Eccentricity:    0.0007946
Arg of perigee:   120.0314 deg
Mean anomaly:     075.7168 deg
Mean motion:   15.55917966 rev/day
Decay rate:      9.202e-05 rev/day^2
Epoch rev:           78076
Checksum:              329

Satellite: CO-58
Catalog number: 28895
Epoch time:      12186.61994314
Element set:    0217
Inclination:      097.9109 deg
RA of node:       052.1247 deg
Eccentricity:    0.0019188
Arg of perigee:   096.8842 deg
Mean anomaly:     263.4570 deg
Mean motion:   14.60661880 rev/day
Decay rate:       5.00e-06 rev/day^2
Epoch rev:           35620
Checksum:              328

Satellite: FALCON
Catalog number: 30776
Epoch time:      12186.34128358
Element set:    0386
Inclination:      035.4303 deg
RA of node:       172.0575 deg
Eccentricity:    0.0001192
Arg of perigee:   179.7711 deg
Mean anomaly:     180.3008 deg
Mean motion:   15.07659319 rev/day
Decay rate:      2.306e-05 rev/day^2
Epoch rev:           29284
Checksum:              293

Satellite: MAST
Catalog number: 31126
Epoch time:      12186.97546447
Element set:    0500
Inclination:      097.8735 deg
RA of node:       197.0351 deg
Eccentricity:    0.0094888
Arg of perigee:   055.5812 deg
Mean anomaly:     305.4311 deg
Mean motion:   14.54184720 rev/day
Decay rate:       5.75e-06 rev/day^2
Epoch rev:           27685
Checksum:              317

Satellite: CAPE1
Catalog number: 31130
Epoch time:      12186.54427652
Element set:    0508
Inclination:      097.8823 deg
RA of node:       193.0012 deg
Eccentricity:    0.0102684
Arg of perigee:   070.0254 deg
Mean anomaly:     291.1964 deg
Mean motion:   14.52969735 rev/day
Decay rate:       7.23e-06 rev/day^2
Epoch rev:           27629
Checksum:              297

Satellite: COMPASS
Catalog number: 32787
Epoch time:      12186.66699409
Element set:    0346
Inclination:      097.7987 deg
RA of node:       247.6151 deg
Eccentricity:    0.0015286
Arg of perigee:   008.2676 deg
Mean anomaly:     351.8821 deg
Mean motion:   14.84072418 rev/day
Decay rate:      1.704e-05 rev/day^2
Epoch rev:           22640
Checksum:              332

Satellite: AAUSAT2
Catalog number: 32788
Epoch time:      12186.70020925
Element set:    0339
Inclination:      097.8025 deg
RA of node:       248.0393 deg
Eccentricity:    0.0015069
Arg of perigee:   009.5843 deg
Mean anomaly:     350.5650 deg
Mean motion:   14.84399808 rev/day
Decay rate:      1.611e-05 rev/day^2
Epoch rev:           22643
Checksum:              310

Satellite: DO-64
Catalog number: 32789
Epoch time:      12186.72986800
Element set:    0354
Inclination:      097.8126 deg
RA of node:       250.1567 deg
Eccentricity:    0.0014442
Arg of perigee:   005.2868 deg
Mean anomaly:     354.8505 deg
Mean motion:   14.85933700 rev/day
Decay rate:      2.755e-05 rev/day^2
Epoch rev:           22648
Checksum:              332

Satellite: CO-66
Catalog number: 32791
Epoch time:      12186.66354976
Element set:    0337
Inclination:      097.8003 deg
RA of node:       247.3399 deg
Eccentricity:    0.0015943
Arg of perigee:   007.6553 deg
Mean anomaly:     352.4910 deg
Mean motion:   14.83475926 rev/day
Decay rate:      1.225e-05 rev/day^2
Epoch rev:           22633
Checksum:              331

